Location: Makanda
(37.6176°N, 89.2090°W)
Time: 09:04:50
(UTC+00:00)

ATLAS 2AS CENTAUR R/B - Pass Details

Date: 23 September 2019
Orbit: 919 x 1292 km, 63.6° (Epoch: 21 September)

Event Time Altitude Azimuth Distance (km) Brightness Sun altitude
Rises 00:46:24 0° 326° (NW) 4,165 6.5 -11.2°
Reaches altitude 10° 00:49:16 10° 325° (NW) 3,152 5.8 -11.7°
Maximum altitude 00:56:47 75° 242° (WSW) 1,166 3.0 -13.2°
Drops below altitude 10° 01:03:35 10° 157° (SSE) 2,864 4.6 -14.5°
Enters shadow 01:05:58 - 156° (SSE) 3,720 5.2 -15.0°
